THOR 5

Last updated on Nov. 22, 2019, 4:19 a.m. UTC

1 32487U 08006A   19325.15980293 -.00000011  00000-0  00000+0 0  9997
2 32487   0.0136 267.1278 0002484 343.6841 225.8647  1.00270288 43117
UTC
Height (km)
Latitude
Longitude
Inclination
Orbital Period
UTC large
Height (km)
Speed (km/s)
/
Latitude / Longitude
Inclination (degrees)
Orbital Period (minutes)
Azimuth
Elevation
Range (km)
Doppler Factor
iOS Compass Heading
iOS Angle

Next 30 passes for location: Hong Kong

Rise time Rise Azimuth (degrees) Set time Set Azimuth (degrees) Duration Max altitude (degrees)

No matching passes for this satellites